Regional Weather Roundup
Issued by NWS

Home | Current Version | Previous Version | Graphics & Text | Print | Product List | Glossary On
Versions: 1 2 3 4 5 6 7 8 9 10 11 12 13 14 15 16 17 18 19 20 21 22 23 24 25 26 27 28 29 30 31 32 33 34 35 36 37 38 39 40 41 42 43 44 45 46 47 48 49 50
000
ASUS43 KFSD 271413
RWRSD

SOUTH DAKOTA HOURLY REGIONAL WEATHER ROUNDUP
NATIONAL WEATHER SERVICE ABERDEEN SD
900 AM CDT WED AUG 27 2014

...SATELLITE DATA IS USED TO AUGMENT CLOUD COVER ABOVE 12000 FEET...

NOTE: "FAIR" INDICATES FEW OR NO CLOUDS BELOW 12,000 FEET WITH NO
SIGNIFICANT WEATHER AND/OR OBSTRUCTION TO VISIBILITY.

SDZ001>005-009-010-012>017-271500-
...NORTHWEST AND NORTH CENTRAL SOUTH DAKOTA...

CITY           SKY/WX    TMP DP  RH WIND       PRES   REMARKS
BUFFALO          N/A     54  52  93 CALM      30.11R
FAITH            N/A     54  53  97 CALM      30.16R
MOBRIDGE       SUNNY     58  56  93 E7        30.14R
$$

SDZ012>016-024>037-041>051-057-063-271500-
...SOUTHWEST AND SOUTH CENTRAL SOUTH DAKOTA...

CITY           SKY/WX    TMP DP  RH WIND       PRES   REMARKS
RAPID CITY     MOSUNNY   57  54  89 E5        30.16S
ELLSWORTH AFB  MOSUNNY   58  54  89 E5        30.16R
CUSTER         SUNNY     61  52  72 NE6       30.25R
PHILIP         FOG       58  57  97 N5        30.12S VSB 1/4
PINE RIDGE     MOSUNNY   62  62 100 MISG      30.12S FOG
PIERRE         CLOUDY    60  60 100 E9        30.11S FOG
WINNER         NOT AVBL
$$

SDZ004>011-016>023-039-040-271500-
...NORTHEAST SOUTH DAKOTA...

CITY           SKY/WX    TMP DP  RH WIND       PRES   REMARKS
ABERDEEN       SUNNY     59  56  89 SE6       30.17S
WATERTOWN      CLOUDY    61  55  81 E8        30.17F
BROOKINGS      NOT AVBL
SISSETON         N/A     61  59  93 VRB3      30.18S
$$

SDZ017-020-022-023-036>040-048>070-271500-
...SOUTHEAST SOUTH DAKOTA...

CITY           SKY/WX    TMP DP  RH WIND       PRES   REMARKS
SIOUX FALLS    CLOUDY    62  56  80 E7        30.18S
YANKTON        CLOUDY    61  57  88 NE6       30.18R
MITCHELL       CLOUDY    62  59  90 SE10      30.17R
HURON          CLOUDY    62  57  83 SE8       30.16R
CHAMBERLAIN    CLOUDY    62  60  93 E7        30.13S
$$


USA.gov is the U.S. government's official web portal to all federal, state and local government web resources and services.